Regional Weather Roundup
Issued by NWS

Home | Current Version | Previous Version | Text Only | Print | Product List | Glossary Off
Versions: 1 2 3 4 5 6 7 8 9 10 11 12 13 14 15 16 17 18 19 20 21 22 23 24 25 26 27 28 29 30 31 32 33 34 35 36 37 38 39 40 41 42 43 44 45 46 47 48 49 50

000
ASUS43 KOAX 182210
RWRNE

WEATHER ROUNDUP FOR NEBRASKA
NATIONAL WEATHER SERVICE OMAHA NE
500 PM CDT WED OCT 18 2017

NOTES: SATELLITE DATA IS BEING USED TO AUGMENT CLOUD COVER ABOVE
       12000 FEET.
       "FAIR" INDICATES FEW OR NO CLOUDS BELOW 12,000 FEET WITH NO
       SIGNIFICANT WEATHER AND/OR OBSTRUCTIONS TO VISIBILITY.


NEZ001>004-019>022-054>056-182300-
NEBRASKA PANHANDLE

CITY           SKY/WX    TMP DP  RH WIND       PRES   REMARKS
SCOTTSBLUFF    SUNNY     72  25  17 SE8       30.08S
ALLIANCE       SUNNY     70  26  19 SE9       30.08F
CHADRON        SUNNY     70  27  20 NE5       30.05F
GORDON           N/A     67  28  23 SE3       30.08S HAZE
KIMBALL        SUNNY     71  22  15 E9        30.12S
SIDNEY         SUNNY     73  23  15 E6        30.11S
$$

NEZ057>060-069>072-079>082-182300-
SOUTHWEST NEBRASKA

CITY           SKY/WX    TMP DP  RH WIND       PRES   REMARKS
NORTH PLATTE   SUNNY     73  34  23 NE10      30.06R
IMPERIAL       SUNNY     76  25  15 NE10      30.06R
LEXINGTON      SUNNY     72  36  26 NE15      30.04R
MCCOOK         LGT RAIN  76  33  21 NE15      30.02R
OGALLALA       SUNNY     74  29  18 E10       30.07S
$$

NEZ005>010-023>029-035>040-094-182300-
NORTH CENTRAL NEBRASKA

CITY           SKY/WX    TMP DP  RH WIND       PRES   REMARKS
VALENTINE      SUNNY     69  29  22 VRB3      30.06S
AINSWORTH      SUNNY     66  35  32 NE7       30.07S
BROKEN BOW     SUNNY     71  38  29 N13       30.04R
O`NEILL        SUNNY     69  38  32 N12       30.05R
ORD            SUNNY     71  31  22 NE14      30.02R
THEDFORD       SUNNY     69  32  25 NE8       30.08R
$$

NEZ041-046>049-061>064-073>077-083>087-182300-
SOUTH CENTRAL NEBRASKA

CITY           SKY/WX    TMP DP  RH WIND       PRES   REMARKS
GRAND ISLAND   SUNNY     75  34  22 N18G29    29.99R
AURORA         SUNNY     75  35  23 N12       29.97R
HASTINGS       SUNNY     74  35  24 N17       29.99R
HEBRON         SUNNY     78  47  33 SW6       29.94F
HOLDREGE       SUNNY     73  38  28 N15       30.01R
KEARNEY        SUNNY     73  36  25 N17       30.01R
YORK           SUNNY     73  43  33 N13       29.96R
$$

NEZ011>018-030>034-042>045-182300-
NORTHEAST NEBRASKA

CITY           SKY/WX    TMP DP  RH WIND       PRES   REMARKS
NORFOLK        SUNNY     73  37  27 N13       29.97R
ALBION         SUNNY     73  39  29 N12       30.01R
BLAIR          SUNNY     77  48  36 CALM      29.94R
COLUMBUS       SUNNY     75  39  27 N15       29.97R
FREMONT        SUNNY     75  44  33 N3        29.95R
TEKAMAH        SUNNY     75  42  30 N9        29.94R
WAYNE          SUNNY     71  35  26 N9        29.98R
$$

NEZ050>053-065>068-078-088>093-182300-
SOUTHEAST NEBRASKA

CITY           SKY/WX    TMP DP  RH WIND       PRES   REMARKS
LINCOLN        SUNNY     78  50  37 S7        29.93S
OMAHA EPPLEY   MOSUNNY   77  48  35 CALM      29.93R
BEATRICE       SUNNY     74  52  45 S10       29.95S
FALLS CITY     SUNNY     74  49  41 S7        29.95R
NEBRASKA CITY  SUNNY     74  50  43 SW9       29.95S
PLATTSMOUTH    SUNNY     75  49  40 S8        29.94R
$$

NEZ044-045-051>053-067-182300-
OMAHA AREA

CITY           SKY/WX    TMP DP  RH WIND       PRES   REMARKS
OMAHA EPPLEY   MOSUNNY   77  48  35 CALM      29.93R
BLAIR          SUNNY     77  48  36 CALM      29.94R
FREMONT        SUNNY     75  44  33 N3        29.95R
MILLARD        SUNNY     77  52  41 CALM      29.93R
OFFUTT AFB     SUNNY     76  50  39 S6        29.92R
PLATTSMOUTH    SUNNY     75  49  40 S8        29.94R
WAHOO          FAIR      77  41  27 N10       29.94R
$$




USA.gov is the U.S. government's official web portal to all federal, state and local government web resources and services.